Location: Killam
(52.7910°N, 111.8608°W)
Time: 10:39:48
(UTC+00:00)

S-56A Canister/Altair - Visible Passes

Search period start: 16 February 2026 00:00
Search period end: 26 February 2026 00:00
Orbit: 632 x 2485 km, 38.9° (Epoch: 15 February)

Date Brightness Start Highest point End Pass type
(mag) Time Alt. Az. Time Alt. Az. Time Alt. Az.
16 Feb 10.5 09:52:47 23° SE 09:52:47 23° SE 09:57:23 10° ESE visible
16 Feb 10.0 11:50:02 28° SSW 11:51:29 29° SSW 12:01:36 10° SE visible
16 Feb 10.7 13:49:08 10° WSW 13:55:03 16° SW 14:01:49 10° S visible
17 Feb 10.9 09:19:51 15° ESE 09:19:51 15° ESE 09:21:39 10° ESE visible
17 Feb 10.0 11:17:07 29° S 11:17:07 29° S 11:26:04 10° SE visible
17 Feb 10.6 13:14:23 11° WSW 13:19:53 17° SSW 13:27:03 10° S visible
18 Feb 10.3 10:44:15 25° SSE 10:44:15 25° SSE 10:50:30 10° SE visible
18 Feb 10.4 12:41:31 16° SW 12:44:47 18° SSW 12:52:07 10° S visible
19 Feb 10.6 10:11:26 19° SSE 10:11:26 19° SSE 10:14:55 10° SE visible
19 Feb 10.3 12:08:42 19° SSW 12:09:41 19° SSW 12:17:03 10° SSE visible
20 Feb 11.0 09:38:40 12° SE 09:38:40 12° SE 09:39:21 10° SE visible
20 Feb 10.4 11:35:57 19° SSW 11:35:57 19° SSW 11:41:53 10° SSE visible
21 Feb 10.6 11:03:15 16° S 11:03:15 16° S 11:06:39 10° SSE visible
22 Feb 10.9 10:30:35 12° SSE 10:30:35 12° SSE 10:31:23 10° SSE visible
